• In Hungary
  • List of Countries
  • For 7 days
  • Water Temperature
  • Satellite Maps
  • Weather Map
  • News
  • Weather Widgets
  • user-avatar
    Login

    Hourly Weather Ekaterinburg

    Today, 23 January, Tuesday

    Time Temperature Precipitation Wind Pressure Humidity
    00:00 -33°C° 0 mm 6 mps 742 mmHg 80%
    01:00 -33°C° 0 mm 6 mps 742 mmHg 79%
    02:00 -31°C° 0 mm 5 mps 742 mmHg 79%
    03:00 -31°C° 0 mm 5 mps 742 mmHg 78%
    04:00 -27°C° 0 mm 3 mps 743 mmHg 75%
    05:00 -29°C° 0 mm 4 mps 743 mmHg 75%
    06:00 -31°C° 0 mm 5 mps 743 mmHg 74%
    07:00 -31°C° 0 mm 6 mps 743 mmHg 73%
    08:00 -31°C° 0 mm 6 mps 743 mmHg 73%
    09:00 -31°C° 0 mm 5 mps 743 mmHg 73%
    10:00 -31°C° 0 mm 5 mps 743 mmHg 73%
    11:00 -31°C° 0 mm 5 mps 743 mmHg 73%
    12:00 -31°C° 0 mm 5 mps 743 mmHg 73%
    13:00 -29°C° 0 mm 5 mps 743 mmHg 73%
    14:00 -29°C° 0 mm 5 mps 743 mmHg 74%
    15:00 -31°C° 0 mm 5 mps 743 mmHg 74%
    16:00 -31°C° 0 mm 5 mps 743 mmHg 74%
    17:00 -31°C° 0 mm 5 mps 743 mmHg 75%
    18:00 -31°C° 0 mm 5 mps 743 mmHg 75%
    19:00 -32°C° 0 mm 5 mps 743 mmHg 76%
    20:00 -31°C° 0 mm 5 mps 743 mmHg 76%
    21:00 -31°C° 0 mm 5 mps 742 mmHg 76%
    22:00 -31°C° 0 mm 5 mps 742 mmHg 76%
    23:00 -31°C° 0 mm 5 mps 742 mmHg 76%

    Tomorrow, 24 January, Wednesday

    Time Temperature Precipitation Wind Pressure Humidity
    00:00 -31°C° 0 mm 5 mps 742 mmHg 77%
    01:00 -31°C° 0 mm 5 mps 742 mmHg 78%
    02:00 -31°C° 0 mm 5 mps 742 mmHg 78%
    03:00 -31°C° 0 mm 5 mps 742 mmHg 79%
    04:00 -29°C° 0 mm 5 mps 742 mmHg 80%
    05:00 -31°C° 0 mm 5 mps 742 mmHg 79%
    06:00 -31°C° 0 mm 5 mps 742 mmHg 79%
    07:00 -31°C° 0 mm 5 mps 742 mmHg 79%
    08:00 -29°C° 0 mm 5 mps 742 mmHg 78%
    09:00 -29°C° 0 mm 5 mps 742 mmHg 77%
    10:00 -28°C° 0 mm 5 mps 742 mmHg 76%
    11:00 -28°C° 0 mm 5 mps 742 mmHg 76%
    12:00 -27°C° 0 mm 5 mps 742 mmHg 77%
    13:00 -26°C° 0 mm 4 mps 742 mmHg 77%
    14:00 -26°C° 0 mm 4 mps 742 mmHg 79%
    15:00 -26°C° 0 mm 4 mps 742 mmHg 81%
    16:00 -27°C° 0 mm 4 mps 743 mmHg 83%
    17:00 -27°C° 0 mm 4 mps 743 mmHg 85%
    18:00 -27°C° 0 mm 4 mps 743 mmHg 88%
    19:00 -27°C° 0 mm 4 mps 743 mmHg 90%
    20:00 -27°C° 0 mm 4 mps 743 mmHg 90%
    21:00 -27°C° 0 mm 4 mps 743 mmHg 90%
    22:00 -29°C° 0 mm 4 mps 743 mmHg 91%
    23:00 -29°C° 0 mm 4 mps 743 mmHg 90%

    Day after tomorrow, 25 January, Thursday

    Time Temperature Precipitation Wind Pressure Humidity
    00:00 -29°C° 0 mm 4 mps 743 mmHg 90%
    01:00 -29°C° 0 mm 4 mps 743 mmHg 90%
    02:00 -29°C° 0 mm 4 mps 743 mmHg 90%
    03:00 -27°C° 0 mm 4 mps 743 mmHg 89%
    04:00 -27°C° 0 mm 4 mps 743 mmHg 89%
    05:00 -27°C° 0 mm 4 mps 743 mmHg 88%
    06:00 -27°C° 0 mm 4 mps 744 mmHg 87%
    07:00 -27°C° 0 mm 4 mps 744 mmHg 86%
    08:00 -27°C° 0 mm 4 mps 744 mmHg 84%
    09:00 -26°C° 0 mm 4 mps 744 mmHg 82%
    10:00 -26°C° 0 mm 4 mps 744 mmHg 80%
    11:00 -25°C° 0 mm 4 mps 744 mmHg 80%
    12:00 -24°C° 0 mm 4 mps 744 mmHg 80%
    13:00 -24°C° 0 mm 4 mps 745 mmHg 80%
    14:00 -24°C° 0 mm 4 mps 745 mmHg 81%
    15:00 -24°C° 0 mm 4 mps 745 mmHg 82%
    16:00 -25°C° 0 mm 4 mps 745 mmHg 83%
    17:00 -25°C° 0 mm 4 mps 745 mmHg 83%
    18:00 -25°C° 0 mm 4 mps 745 mmHg 83%
    19:00 -26°C° 0 mm 4 mps 745 mmHg 82%
    20:00 -26°C° 0 mm 4 mps 745 mmHg 82%
    21:00 -26°C° 0 mm 4 mps 745 mmHg 82%
    22:00 -25°C° 0 mm 4 mps 745 mmHg 81%
    23:00 -25°C° 0 mm 4 mps 745 mmHg 81%

    26 January, Friday

    Time Temperature Precipitation Wind Pressure Humidity
    00:00 -25°C° 0 mm 4 mps 745 mmHg 81%
    01:00 -25°C° 0 mm 4 mps 745 mmHg 81%
    02:00 -25°C° 0 mm 4 mps 746 mmHg 81%
    03:00 -25°C° 0 mm 4 mps 746 mmHg 80%
    04:00 -24°C° 0 mm 3 mps 746 mmHg 80%
    05:00 -23°C° 0 mm 3 mps 746 mmHg 80%
    06:00 -23°C° 0 mm 3 mps 746 mmHg 80%
    07:00 -23°C° 0 mm 3 mps 746 mmHg 79%
    08:00 -22°C° 0 mm 3 mps 746 mmHg 79%
    09:00 -21°C° 0 mm 3 mps 746 mmHg 78%
    10:00 -21°C° 0 mm 3 mps 746 mmHg 77%
    11:00 -19°C° 0 mm 3 mps 746 mmHg 77%
    12:00 -18°C° 0 mm 3 mps 746 mmHg 77%
    13:00 -17°C° 0 mm 3 mps 746 mmHg 78%
    14:00 -17°C° 0 mm 3 mps 746 mmHg 79%
    15:00 -17°C° 0 mm 3 mps 746 mmHg 81%
    16:00 -17°C° 0 mm 3 mps 746 mmHg 83%
    17:00 -17°C° 0 mm 3 mps 746 mmHg 83%
    18:00 -18°C° 0 mm 3 mps 746 mmHg 84%
    19:00 -17°C° 0 mm 2 mps 746 mmHg 84%
    20:00 -17°C° 0 mm 2 mps 746 mmHg 84%
    21:00 -17°C° 0 mm 2 mps 746 mmHg 83%
    22:00 -17°C° 0 mm 2 mps 746 mmHg 82%
    23:00 -17°C° 0 mm 2 mps 746 mmHg 82%

    27 January, Saturday

    Time Temperature Precipitation Wind Pressure Humidity
    00:00 -18°C° 0 mm 2 mps 746 mmHg 82%
    01:00 -18°C° 0 mm 2 mps 746 mmHg 81%
    02:00 -18°C° 0 mm 2 mps 746 mmHg 80%
    03:00 -18°C° 0 mm 2 mps 746 mmHg 78%
    04:00 -19°C° 0 mm 3 mps 746 mmHg 77%
    05:00 -19°C° 0 mm 3 mps 746 mmHg 75%
    06:00 -18°C° 0 mm 3 mps 746 mmHg 73%
    07:00 -18°C° 0 mm 3 mps 746 mmHg 72%
    08:00 -17°C° 0 mm 3 mps 746 mmHg 69%
    09:00 -18°C° 0 mm 4 mps 746 mmHg 67%
    10:00 -17°C° 0 mm 4 mps 746 mmHg 64%
    11:00 -16°C° 0 mm 4 mps 746 mmHg 64%
    12:00 -15°C° 0 mm 4 mps 746 mmHg 64%
    13:00 -14°C° 0 mm 4 mps 746 mmHg 64%
    14:00 -15°C° 0 mm 4 mps 746 mmHg 67%
    15:00 -15°C° 0 mm 4 mps 746 mmHg 69%
    16:00 -15°C° 0 mm 3 mps 746 mmHg 72%
    17:00 -16°C° 0 mm 4 mps 746 mmHg 71%
    18:00 -17°C° 0 mm 4 mps 746 mmHg 71%
    19:00 -17°C° 0 mm 4 mps 746 mmHg 70%
    20:00 -17°C° 0 mm 4 mps 745 mmHg 69%
    21:00 -17°C° 0 mm 4 mps 745 mmHg 68%
    22:00 -17°C° 0 mm 4 mps 745 mmHg 67%
    23:00 -18°C° 0 mm 4 mps 745 mmHg 67%

    28 January, Sunday

    Time Temperature Precipitation Wind Pressure Humidity
    00:00 -18°C° 0 mm 4 mps 745 mmHg 67%
    01:00 -18°C° 0 mm 4 mps 744 mmHg 67%
    02:00 -18°C° 0 mm 4 mps 744 mmHg 66%
    03:00 -18°C° 0 mm 4 mps 744 mmHg 66%
    04:00 -18°C° 0 mm 4 mps 744 mmHg 66%
    05:00 -18°C° 0 mm 4 mps 744 mmHg 66%
    06:00 -19°C° 0 mm 4 mps 744 mmHg 67%
    07:00 -19°C° 0 mm 4 mps 744 mmHg 67%
    08:00 -19°C° 0 mm 5 mps 743 mmHg 66%
    09:00 -19°C° 0 mm 5 mps 743 mmHg 65%
    10:00 -18°C° 0 mm 5 mps 743 mmHg 63%
    11:00 -17°C° 0 mm 5 mps 743 mmHg 64%
    12:00 -15°C° 0 mm 5 mps 743 mmHg 64%
    13:00 -14°C° 0 mm 5 mps 743 mmHg 65%
    14:00 -15°C° 0 mm 4 mps 742 mmHg 67%
    15:00 -15°C° 0 mm 4 mps 742 mmHg 68%
    16:00 -16°C° 0 mm 4 mps 742 mmHg 70%
    17:00 -16°C° 0 mm 4 mps 742 mmHg 70%
    18:00 -17°C° 0 mm 4 mps 741 mmHg 70%
    19:00 -17°C° 0 mm 4 mps 741 mmHg 70%
    20:00 -18°C° 0 mm 4 mps 741 mmHg 69%
    21:00 -18°C° 0 mm 4 mps 741 mmHg 68%
    22:00 -18°C° 0 mm 4 mps 740 mmHg 67%
    23:00 -18°C° 0 mm 4 mps 740 mmHg 68%
    Show more